TITAN 3C TRANSTAGE DEB, 1833

Orbit data source: Space-Track

TITAN 3C TRANSTAGE DEB, 1833 is space debris in LEO originally from a launch on Fri, 15 Oct 1965 UTC launched from the Air Force Eastern Test Range (AFETR). Debris objects in space refer to the collection of defunct objects orbiting the Earth. Examples of debris include non-operational satellites, rocket bodies, and fragments generated from explosions, collisions, or faulty payload assembly.

Loading next visibility...
Identifier
1833, 1965-082DY
Orbit
LEO
Country
Flag of USUS
Related business
Manufacturer
Unknown
Mission
Spacecraft
Bus & Motor
Unknown
Mass
Unknown
Launch date (UTC)
1965-10-15 (60 years ago)
Launch vehicle
Unknown
Launch site
Air Force Eastern Test Range (AFETR)
Object type
Payload
Rocket body
Debris
Shape & HBR
Unknown shape, 0.2 m
Radar Cross Section
Medium (>0.1 m² and <1 m²)

Expand to show TLE details & history
Last TLE update: 11 hours ago

TLE from 11 hours ago
0 TITAN 3C TRANSTAGE DEB
1  1833U 65082DY  25353.97982863  .00001574  00000-0  22822-3 0  9992
2  1833  32.2257 201.8413 0060600 290.4473  68.9678 14.72858045143497
Epoch: 2025-12-19T23:30Z
TLE epoch observation values (Epoch: 2025-12-19T23:30:57.193Z)
Latitude
-0.00002°
Longitude
120.28976°
Altitude
635.552 km
Speed
7.551 km/s
True Right ascension
13h 27m 21s
True Declination
0° 00' 00"
Sunlit
Object was in daylight at epoch
Visualization orbit readout
Latitude
Unknown
Longitude
Unknown
Altitude
Unknown
Speed
Unknown
Apparent Right ascension
Unknown
Apparent Declination
Unknown
Sunlit
N/A
Visualization observer readout
Local Sidereal Time
09:30:20
Azimuth
Unknown
Elevation
Unknown
Doppler factor
Unknown
Orbital elements
Apogee altitude
698.181 km
Perigee altitude
612.933 km
Semi-major axis
7,033.694 km
Eccentricity
0.00606
Inclination
32.2257°
RAAN
201.8413°
Arg. of periapsis
290.4473°
True anomaly
69.61771°
Mean anomaly
68.9678°
Eccentric anomaly
69.29258°
Mean motion
3.67932 °/min
Orbital period
97.84 mins
BSTAR
0.00022822

Documentation

Showing up to 5 results
|